Regional Weather Roundup
Issued by NWS Newport/Morehead, NC

Current Version | Previous Version | Graphics & Text | Print | Product List | Glossary Off
Versions: 1 2 3 4 5 6 7 8 9 10 11 12 13 14 15 16 17 18 19 20 21 22 23 24 25 26 27 28 29 30 31 32 33 34 35 36 37 38 39 40 41 42 43 44 45 46 47 48 49 50
000 ASUS42 KMHX 042325 RWRMHX WEATHER ROUNDUP FOR EASTERN NORTH CAROLINA NATIONAL WEATHER SERVICE NEWPORT/MOREHEAD CITY NC 700 PM EDT WED MAY 04 2016 NOTE: "FAIR" INDICATES FEW OR NO CLOUDS BELOW 12,000 FEET WITH NO SIGNIFICANT WEATHER AND/OR OBSTRUCTIONS TO VISIBILITY NCZ015>017-031-032-045>047-102-103-050000- NORTH COAST CITY SKY/WX TMP DP RH WIND PRES REMARKS EDENTON MOSUNNY 69 63 79 NE5 29.60F ELIZABETH CITY MOCLDY 62 58 86 NE15 29.62S KITTY HAWK CLOUDY 58 55 92 NE8 29.61R FOG MANTEO CLOUDY 57 57 99 NE13 29.63R $$ NCZ045>047-081-094-103-104-050000- CENTRAL COAST CITY SKY/WX TMP DP RH WIND PRES REMARKS FRISCO MOCLDY 69 65 86 CALM 29.59R SWANQUARTER NOT AVBL $$ NCZ095-097-098-100-101-050000- SOUTHERN COAST CITY SKY/WX TMP DP RH WIND PRES REMARKS BEAUFORT CLOUDY 71 64 78 W9 29.57S CEDAR ISLAND NOT AVBL JACKSONVILLE MOSUNNY 74 58 57 NW8 29.57S PINEY ISLAND CLOUDY N/A N/A N/A NE5 29.58S WILMINGTON CLOUDY 77 54 44 NW10 29.57S $$ NCZ011>013-027>030-043-044-078>080-089-090>093-098-050000- COASTAL PLAIN CITY SKY/WX TMP DP RH WIND PRES REMARKS AHOSKIE PTSUNNY 67 61 80 CALM 29.60S CLINTON SUNNY 73 55 52 CALM 29.59F ELIZABETHTOWN CLOUDY 75 50 41 CALM 29.59S GOLDSBORO CLOUDY 75 52 44 NW8 29.57F GREENVILLE CLOUDY 73 55 53 NW5 29.62S HAVELOCK CLOUDY 69 66 90 E6 29.58F KENANSVILLE CLOUDY 73 51 46 CALM 29.59F KINSTON PTSUNNY 75 55 50 N8 29.58F NEW BERN CLOUDY 73 57 57 NW7 29.58F RICHLANDS PTSUNNY 74 58 57 CALM 29.58F ROCKY MOUNT SUNNY 72 53 51 NW7 29.59F WASHINGTON MOSUNNY 71 62 74 N9 29.57F WHITEVILLE NOT AVBL $$ AMZ130-135-150-152-154-156-158-170-250-252-270-ANZ085-086-088-633-658-670-050000- MARINE OBSERVATIONS STATION/POSITION TIME TEMP WIND PRES WAVE SWELL AIR SEA DIR/SP/G HT/PER HT/PER (UTC) (F) (DEG/KT/KT) (MB) (FT/S) (FT/S) CHESAPEAKE LIGHT 2300 53 40/ 17/ 18 1004.1 64 E VA BEACH 2250 54 55 20/ 12/ 12 1002.8 3/ 7 3/ 7 DUCK 2300 60 1002.4 2 E DUCK 2211 59 N/A 3/ 5 OREGON INLET 2300 67 1002.7 13E OREGON INLT 2300 61 N/A 3/ 7 2/ 7 HATTERAS CG 2300 70 1001.8 DIAMOND BUOY 2250 69 71 10/ 6/ 8 1001.6 3/ 8 3/ 8 CAPE LOOKOUT 2300 70 250/ 6/ 8 1001.0 BEAUFORT LAB 2300 66 1000.4 30 SE NEW RVR IN 2225 73 N/A 5/ 7 27 SE WRIGHTSVLE 2308 72 72 250/ 16/ 21 1000.7 5 SE WRIGHTSVLE 2308 72 70 240/ 12/ 16 1001.9 225 S CAPE HAT 2250 74 74 170/ 17/ 21 1004.3 5/ 7 2/ 9 41 SE CHARLESTON 2250 74 75 230/ 19/ 21 1002.2 4/ 4 2/ 9 $$

USA.gov is the U.S. government's official web portal to all federal, state and local government web resources and services.